Change the Weather History Date:

Tuesday, September 11, 2012

  Actual Average Record
Temperature  
Mean Temperature 75 °F 73 °F  
Max Temperature 87 °F 84 °F 100 °F (2000)
Min Temperature 63 °F 61 °F 44 °F (1968)
Degree Days  
Heating Degree Days 0 0  
Month to date heating degree days 0 0  
Since 1 July heating degree days 0 1  
Cooling Degree Days 10 8  
Month to date cooling degree days 125 110  
Year to date cooling degree days 1996 1537  
Growing Degree Days 25 (Base 50)    
Moisture  
Dew Point 55 °F    
Average Humidity 55    
Maximum Humidity 78    
Minimum Humidity 31    
Precipitation  
Precipitation 0.00 in 0.17 in 1.20 in (1975)
Month to date precipitation 2.25 1.76  
Year to date precipitation 26.07 32.73  
Snow  
Snow 0.00 in - - ()
Month to date snowfall 0.0  
Snow Depth 0.00 in    
Sea Level Pressure  
Sea Level Pressure 30.04 in    
Wind  
Wind Speed 11 mph (South)    
Max Wind Speed 18 mph    
Max Gust Speed 22 mph    
Visibility 10 miles    
Events      
T = Trace of Precipitation, MM = Missing Value Source: NWS Daily Summary

Daily Weather History Graph

Daily Weather History Graph

Search for Another Location

Airport or City:

Trip Planner

Search our weather history database for the weather conditions in past years. The results will help you decide how hot, cold, wet, or windy it might be!

Date:

Astronomy

Sep. 11, 2012 Rise Set
Actual Time 6:57 AM CDT 7:30 PM CDT
Civil Twilight 6:31 AM CDT 7:57 PM CDT
Nautical Twilight 6:00 AM CDT 8:27 PM CDT
Astronomical Twilight 5:28 AM CDT 8:59 PM CDT
Moon 2:20 AM CDT (9/11) 4:37 PM CDT (9/11)
Length of Visible Light 13h 26m
Length of Day
12h 33m
Waning Crescent, 21% of the Moon is Illuminated
Sep 11
Waning Crescent
Sep 15
New
Sep 22
First Quarter
Sep 29
Full
Oct 8
Last Quarter

Hourly Weather History & Observations

Time (CDT) Temp. Heat Index Dew Point Humidity Pressure Visibility Wind Dir Wind Speed Gust Speed Precip Events Conditions
12:53 AM 66.0 °F - 53.1 °F 63% 30.04 in 10.0 mi SE 8.1 mph - N/A   Clear
1:53 AM 64.9 °F - 54.0 °F 68% 30.04 in 10.0 mi SE 8.1 mph - N/A   Clear
2:53 AM 63.0 °F - 54.0 °F 72% 30.04 in 10.0 mi SSE 9.2 mph - N/A   Clear
3:53 AM 63.0 °F - 54.0 °F 72% 30.04 in 10.0 mi SSE 9.2 mph - N/A   Clear
4:53 AM 63.0 °F - 54.0 °F 72% 30.04 in 10.0 mi SSE 9.2 mph - N/A   Clear
5:53 AM 63.0 °F - 55.0 °F 75% 30.05 in 10.0 mi South 11.5 mph - N/A   Clear
6:53 AM 63.0 °F - 55.9 °F 78% 30.06 in 10.0 mi SSE 9.2 mph - N/A   Clear
7:53 AM 64.9 °F - 57.0 °F 75% 30.08 in 10.0 mi SSE 10.4 mph - N/A   Clear
8:53 AM 71.1 °F - 57.9 °F 63% 30.09 in 10.0 mi South 15.0 mph 21.9 mph N/A   Clear
9:53 AM 75.9 °F - 57.0 °F 52% 30.09 in 10.0 mi SSW 13.8 mph - N/A   Clear
10:53 AM 79.0 °F - 57.0 °F 47% 30.09 in 10.0 mi SW 15.0 mph - N/A   Clear
11:53 AM 82.0 °F 82.0 °F 57.9 °F 44% 30.08 in 10.0 mi SSW 12.7 mph - N/A   Clear
12:53 PM 84.0 °F 83.5 °F 57.9 °F 41% 30.07 in 10.0 mi SSW 9.2 mph 17.3 mph N/A   Clear
1:53 PM 84.9 °F 84.2 °F 57.9 °F 40% 30.04 in 10.0 mi South 12.7 mph - N/A   Clear
2:53 PM 86.0 °F 84.5 °F 55.0 °F 35% 30.02 in 10.0 mi South 11.5 mph 17.3 mph N/A   Clear
3:53 PM 87.1 °F 85.3 °F 55.0 °F 33% 30.00 in 10.0 mi SSE 11.5 mph - N/A   Clear
4:53 PM 87.1 °F 85.1 °F 54.0 °F 32% 29.99 in 10.0 mi South 12.7 mph 21.9 mph N/A   Clear
5:53 PM 84.2 °F - 51.8 °F 33% 30.01 in 10.0 mi South 13.8 mph 18.4 mph N/A   Clear
6:53 PM 81.0 °F 80.5 °F 54.0 °F 39% 29.99 in 10.0 mi SSE 10.4 mph - N/A   Clear
7:53 PM 79.0 °F - 54.0 °F 42% 29.99 in 10.0 mi SSE 5.8 mph - N/A   Clear
8:53 PM 78.1 °F - 53.1 °F 42% 30.00 in 10.0 mi SSE 9.2 mph - N/A   Clear
9:53 PM 75.9 °F - 53.1 °F 45% 30.02 in 10.0 mi SSE 12.7 mph - N/A   Clear
10:53 PM 75.0 °F - 54.0 °F 48% 30.02 in 10.0 mi SSE 11.5 mph - N/A   Clear
11:53 PM 73.9 °F - 55.9 °F 53% 30.02 in 10.0 mi SSE 12.7 mph 20.7 mph N/A   Clear